TimeCET,TemperatureF,Dew PointF,Humidity,Sea Level PressureIn,VisibilityMPH,Wind Direction,Wind SpeedMPH,Gust SpeedMPH,PrecipitationIn,Events,Conditions,WindDirDegrees,DateUTC
12:20 AM,42.8,37.4,81,29.98,-9999.0,North,5.8,-,N/A,,Clear,360,2013-02-18 23:20:00
12:50 AM,42.8,37.4,81,29.98,6.2,NNE,5.8,-,N/A,,Partly Cloudy,20,2013-02-18 23:50:00
1:20 AM,41.0,35.6,81,29.95,6.2,NNW,3.5,-,N/A,,Partly Cloudy,330,2013-02-19 00:20:00
1:50 AM,41.0,35.6,81,29.95,6.2,NNW,4.6,-,N/A,,Partly Cloudy,340,2013-02-19 00:50:00
2:20 AM,41.0,35.6,81,29.95,-9999.0,NNW,5.8,-,N/A,,Clear,340,2013-02-19 01:20:00
2:50 AM,41.0,35.6,81,29.95,-9999.0,NNW,5.8,-,N/A,,Clear,330,2013-02-19 01:50:00
3:20 AM,41.0,35.6,81,29.95,-9999.0,NNW,5.8,-,N/A,,Clear,340,2013-02-19 02:20:00
3:50 AM,41.0,35.6,81,29.95,-9999.0,North,5.8,-,N/A,,Clear,350,2013-02-19 02:50:00
4:20 AM,41.0,33.8,76,29.95,-9999.0,North,6.9,-,N/A,,Clear,10,2013-02-19 03:20:00
4:50 AM,41.0,33.8,76,29.95,-9999.0,North,4.6,-,N/A,,Clear,350,2013-02-19 03:50:00
5:20 AM,39.2,32.0,75,29.95,-9999.0,NW,3.5,-,N/A,,Clear,320,2013-02-19 04:20:00
5:50 AM,41.0,33.8,76,29.95,-9999.0,North,5.8,-,N/A,,Clear,10,2013-02-19 04:50:00
6:20 AM,41.0,33.8,76,29.95,-9999.0,NNE,5.8,-,N/A,,Clear,30,2013-02-19 05:20:00
6:50 AM,39.2,32.0,75,29.95,-9999.0,NNW,4.6,-,N/A,,Clear,340,2013-02-19 05:50:00
7:20 AM,39.2,33.8,81,29.95,-9999.0,NNW,5.8,-,N/A,,Clear,340,2013-02-19 06:20:00
7:50 AM,41.0,33.8,76,29.95,-9999.0,Variable,1.2,-,N/A,,Clear,0,2013-02-19 06:50:00
8:20 AM,42.8,33.8,70,29.98,-9999.0,NNW,4.6,-,N/A,,Clear,340,2013-02-19 07:20:00
8:50 AM,44.6,33.8,66,29.98,-9999.0,Variable,2.3,-,N/A,,Clear,0,2013-02-19 07:50:00
9:20 AM,48.2,33.8,58,29.98,-9999.0,Variable,2.3,-,N/A,,Clear,0,2013-02-19 08:20:00
9:50 AM,50.0,32.0,50,29.98,-9999.0,NNE,3.5,-,N/A,,Clear,30,2013-02-19 08:50:00
10:20 AM,50.0,33.8,54,29.98,-9999.0,Variable,4.6,-,N/A,,Clear,0,2013-02-19 09:20:00
10:50 AM,50.0,32.0,50,29.98,-9999.0,North,3.5,-,N/A,,Clear,350,2013-02-19 09:50:00
11:20 AM,51.8,32.0,47,29.98,-9999.0,NNE,3.5,-,N/A,,Clear,20,2013-02-19 10:20:00
11:50 AM,51.8,32.0,47,29.98,-9999.0,Variable,4.6,-,N/A,,Clear,0,2013-02-19 10:50:00
12:20 PM,51.8,32.0,47,29.95,-9999.0,Variable,4.6,-,N/A,,Clear,0,2013-02-19 11:20:00
12:50 PM,53.6,32.0,44,29.95,-9999.0,NNE,4.6,-,N/A,,Clear,20,2013-02-19 11:50:00
1:20 PM,53.6,32.0,44,29.95,6.2,Variable,4.6,-,N/A,,Partly Cloudy,0,2013-02-19 12:20:00
1:50 PM,53.6,33.8,47,29.95,6.2,NNE,6.9,-,N/A,,Partly Cloudy,30,2013-02-19 12:50:00
2:20 PM,53.6,30.2,41,29.92,6.2,North,5.8,-,N/A,,Partly Cloudy,350,2013-02-19 13:20:00
2:50 PM,55.4,32.0,41,29.92,6.2,Variable,2.3,-,N/A,,Partly Cloudy,0,2013-02-19 13:50:00
3:20 PM,55.4,32.0,41,29.92,6.2,Variable,2.3,-,N/A,,Partly Cloudy,0,2013-02-19 14:20:00
3:50 PM,53.6,33.8,47,29.92,6.2,WNW,9.2,-,N/A,,Partly Cloudy,290,2013-02-19 14:50:00
4:20 PM,51.8,32.0,47,29.92,6.2,West,9.2,-,N/A,,Partly Cloudy,280,2013-02-19 15:20:00
4:50 PM,51.8,32.0,47,29.92,6.2,WNW,10.4,-,N/A,,Partly Cloudy,300,2013-02-19 15:50:00
5:20 PM,50.0,33.8,54,29.92,-9999.0,WNW,10.4,-,N/A,,Clear,300,2013-02-19 16:20:00
5:50 PM,50.0,33.8,54,29.92,-9999.0,WNW,9.2,-,N/A,,Clear,290,2013-02-19 16:50:00
6:20 PM,48.2,35.6,62,29.92,-9999.0,WNW,5.8,-,N/A,,Clear,290,2013-02-19 17:20:00
6:50 PM,48.2,35.6,62,29.95,-9999.0,WNW,5.8,-,N/A,,Clear,290,2013-02-19 17:50:00
7:20 PM,48.2,35.6,62,29.95,-9999.0,WNW,4.6,-,N/A,,Clear,290,2013-02-19 18:20:00
7:50 PM,46.4,35.6,66,29.95,-9999.0,NW,3.5,-,N/A,,Clear,310,2013-02-19 18:50:00
8:20 PM,46.4,35.6,66,29.95,-9999.0,East,3.5,-,N/A,,Clear,100,2013-02-19 19:20:00
8:50 PM,44.6,35.6,71,29.95,-9999.0,Calm,Calm,-,N/A,,Clear,0,2013-02-19 19:50:00
9:20 PM,44.6,35.6,71,29.95,-9999.0,Calm,Calm,-,N/A,,Clear,0,2013-02-19 20:20:00
9:50 PM,42.8,35.6,76,29.98,-9999.0,Variable,1.2,-,N/A,,Clear,0,2013-02-19 20:50:00
10:20 PM,41.0,33.8,76,29.98,-9999.0,Calm,Calm,-,N/A,,Clear,0,2013-02-19 21:20:00
10:50 PM,41.0,35.6,81,29.98,-9999.0,Calm,Calm,-,N/A,,Clear,0,2013-02-19 21:50:00
11:20 PM,41.0,33.8,76,29.98,-9999.0,Calm,Calm,-,N/A,,Clear,0,2013-02-19 22:20:00
11:50 PM,41.0,35.6,81,29.98,-9999.0,Calm,Calm,-,N/A,,Clear,0,2013-02-19 22:50:00